H1 CPF 2 NER 2024 3 19 9 079 01 glonass140 H2 1903001 9140 44299 2024 3 19 0 0 0 2024 3 22 23 45 0 900 1 1 0 0 0 1 H9 10 0 60388 0.00000 0 -15277579.971 -19115617.216 -7208246.614 10 0 60388 900.00000 0 -14552813.174 -18312318.367 -10173737.732 10 0 60388 1800.00000 0 -13491457.268 -17348969.354 -12941576.383 10 0 60388 2700.00000 0 -12092348.965 -16284393.761 -15457922.614 10 0 60388 3600.00000 0 -10367247.936 -15178267.565 -17673799.592 10 0 60388 4500.00000 0 -8340605.053 -14088532.137 -19546052.275 10 0 60388 5400.00000 0 -6048802.834 -13068897.174 -21038193.608 10 0 60388 6300.00000 0 -3538898.064 -12166539.155 -22121121.393 10 0 60388 7200.00000 0 -866917.640 -11420092.676 -22773691.496 10 0 60388 8100.00000 0 1904222.559 -10858019.711 -22983135.895 10 0 60388 9000.00000 0 4707089.984 -10497425.802 -22745317.110 10 0 60388 9900.00000 0 7472300.757 -10343373.382 -22064813.709 10 0 60388 10800.00000 0 10131171.636 -10388721.328 -20954834.865 10 0 60388 11700.00000 0 12618348.397 -10614497.557 -19436965.299 10 0 60388 12600.00000 0 14874301.199 -10990788.862 -17540745.287 10 0 60388 13500.00000 0 16847582.932 -11478110.114 -15303093.720 10 0 60388 14400.00000 0 18496756.473 -12029194.553 -12767585.418 10 0 60388 15300.00000 0 19791910.516 -12591128.819 -9983596.923 10 0 60388 16200.00000 0 20715701.118 -13107741.609 -7005337.831 10 0 60388 17100.00000 0 21263876.122 -13522143.984 -3890787.071 10 0 60388 18000.00000 0 21445261.557 -13779312.808 -700555.705 10 0 60388 18900.00000 0 21281211.996 -13828607.033 2503300.711 10 0 60388 19800.00000 0 20804549.602 -13626109.513 5658496.153 10 0 60388 20700.00000 0 20058038.194 -13136694.595 8703730.000 10 0 60388 21600.00000 0 19092458.257 -12335733.664 11579880.436 10 0 60388 22500.00000 0 17964365.399 -11210366.333 14231151.791 10 0 60388 23400.00000 0 16733627.791 -9760283.588 16606153.431 10 0 60388 24300.00000 0 15460846.907 -7997989.899 18658889.612 10 0 60388 25200.00000 0 14204770.246 -5948533.214 20349641.773 10 0 60388 26100.00000 0 13019804.469 -3648714.023 21645727.121 10 0 60388 27000.00000 0 11953732.622 -1145806.185 22522119.999 10 0 60388 27900.00000 0 11045730.086 1504157.709 22961925.264 10 0 60388 28800.00000 0 10324761.156 4238465.906 22956695.653 10 0 60388 29700.00000 0 9808422.032 6990086.696 22506588.006 10 0 60388 30600.00000 0 9502277.403 9690210.662 21620356.002 10 0 60388 31500.00000 0 9399717.385 12270871.994 20315179.856 10 0 60388 32400.00000 0 9482340.029 14667541.685 18616336.209 10 0 60388 33300.00000 0 9720842.989 16821586.576 16556714.154 10 0 60388 34200.00000 0 10076386.902 18682493.444 14176186.039 10 0 60388 35100.00000 0 10502373.426 20209766.891 11520844.294 10 0 60388 36000.00000 0 10946563.623 21374422.862 8642117.991 10 0 60388 36900.00000 0 11353447.978 22160016.127 5595785.298 10 0 60388 37800.00000 0 11666768.608 22563159.063 2440900.068 10 0 60388 38700.00000 0 11832087.494 22593510.125 -761347.335 10 0 60388 39600.00000 0 11799292.246 22273232.311 -3948813.242 10 0 60388 40500.00000 0 11524933.198 21635944.119 -7059605.168 10 0 60388 41400.00000 0 10974292.295 20725206.755 -10033284.149 10 0 60388 42300.00000 0 10123095.244 19592610.925 -12812041.285 10 0 60388 43200.00000 0 8958793.167 18295543.519 -15341825.271 10 0 60388 44100.00000 0 7481357.933 16894728.023 -17573398.554 10 0 60388 45000.00000 0 5703555.726 15451642.213 -19463301.089 10 0 60388 45900.00000 0 3650685.339 14025921.882 -20974702.502 10 0 60388 46800.00000 0 1359790.170 12672859.993 -22078125.688 10 0 60388 47700.00000 0 -1121624.888 11441106.671 -22752027.356 10 0 60388 48600.00000 0 -3737319.584 10370666.964 -22983223.906 10 0 60388 49500.00000 0 -6424416.709 9491280.711 -22767153.980 10 0 60388 50400.00000 0 -9115786.148 8821252.763 -22107972.258 10 0 60388 51300.00000 0 -11742615.812 8366782.684 -21018472.317 10 0 60388 52200.00000 0 -14237062.685 8121821.993 -19519839.720 10 0 60388 53100.00000 0 -16534873.529 8068464.574 -17641239.869 10 0 60388 54000.00000 0 -18577865.924 8177853.273 -15419248.459 10 0 60388 54900.00000 0 -20316166.032 8411563.676 -12897135.545 10 0 60388 55800.00000 0 -21710109.543 8723405.752 -10124017.368 10 0 60388 56700.00000 0 -22731726.437 9061566.125 -7153892.787 10 0 60388 57600.00000 0 -23365747.811 9370999.204 -4044583.678 10 0 60388 58500.00000 0 -23610093.218 9595964.773 -856600.748 10 0 60388 59400.00000 0 -23475819.113 9682603.428 2348042.241 10 0 60388 60300.00000 0 -22986531.852 9581439.780 5507041.824 10 0 60388 61200.00000 0 -22177291.396 9249706.581 8559021.208 10 0 60388 62100.00000 0 -21093053.382 8653390.820 11444725.343 10 0 60388 63000.00000 0 -19786716.512 7768914.882 14108171.034 10 0 60388 63900.00000 0 -18316858.593 6584381.602 16497729.642 10 0 60388 64800.00000 0 -16745257.208 5100330.625 18567121.686 10 0 60388 65700.00000 0 -15134299.517 3329974.208 20276304.727 10 0 60388 66600.00000 0 -13544389.725 1298902.428 21592238.267 10 0 60388 67500.00000 0 -12031462.295 -955730.156 22489512.039 10 0 60388 68400.00000 0 -10644703.968 -3386502.942 22950826.756 10 0 60388 69300.00000 0 -9424578.579 -5937459.438 22967319.204 10 0 60388 70200.00000 0 -8401235.746 -8546198.174 22538726.378 10 0 60388 71100.00000 0 -7593368.398 -11146238.743 21673386.185 10 0 60388 72000.00000 0 -7007565.502 -13669566.100 20388075.035 10 0 60388 72900.00000 0 -6638185.864 -16049249.008 18707685.401 10 0 60388 73800.00000 0 -6467757.411 -18222025.392 16664749.177 10 0 60388 74700.00000 0 -6467884.691 -20130748.505 14298815.329 10 0 60388 75600.00000 0 -6600626.320 -21726593.321 11655692.965 10 0 60388 76500.00000 0 -6820284.544 -22970932.141 8786573.423 10 0 60388 77400.00000 0 -7075531.862 -23836801.707 5747047.411 10 0 60388 78300.00000 0 -7311785.377 -24309900.771 2596035.334 10 0 60388 79200.00000 0 -7473728.916 -24389076.349 -605349.154 10 0 60388 80100.00000 0 -7507876.445 -24086277.941 -3794980.753 10 0 60388 81000.00000 0 -7365068.186 -23425981.251 -6910926.520 10 0 60388 81900.00000 0 -7002793.352 -22444105.034 -9892648.892 10 0 60388 82800.00000 0 -6387240.376 -21186466.075 -12682184.049 10 0 60388 83700.00000 0 -5494986.702 -19706836.782 -15225272.379 10 0 60388 84600.00000 0 -4314255.231 -18064686.672 -17472418.635 10 0 60388 85500.00000 0 -2845682.587 -16322702.441 -19379860.644 10 0 60389 0.00000 0 -1102565.080 -14544190.888 -20910427.213 10 0 60389 900.00000 0 889431.014 -12790472.756 -22034268.858 10 0 60389 1800.00000 0 3093082.228 -11118379.376 -22729444.792 10 0 60389 2700.00000 0 5460914.567 -9577954.051 -22982357.150 10 0 60389 3600.00000 0 7936948.648 -8210457.049 -22788021.504 10 0 60389 4500.00000 0 10458812.465 -7046756.931 -22150168.966 10 0 60389 5400.00000 0 12960134.258 -6106175.739 -21081177.363 10 0 60389 6300.00000 0 15373116.138 -5395836.186 -19601832.505 10 0 60389 7200.00000 0 17631181.201 -4910537.804 -17740923.887 10 0 60389 8100.00000 0 19671583.601 -4633166.509 -15534682.531 10 0 60389 9000.00000 0 21437872.337 -4535619.416 -13026071.815 10 0 60389 9900.00000 0 22882105.520 -4580204.773 -10263945.312 10 0 60389 10800.00000 0 23966722.287 -4721456.619 -7302088.365 10 0 60389 11700.00000 0 24665994.017 -4908286.095 -4198162.652 10 0 60389 12600.00000 0 24966994.257 -5086376.951 -1012575.111 10 0 60389 13500.00000 0 24870047.284 -5200722.482 2192705.859 10 0 60389 14400.00000 0 24388637.361 -5198195.197 5355362.928 10 0 60389 15300.00000 0 23548783.670 -5030039.344 8413946.606 10 0 60389 16200.00000 0 22387908.465 -4654179.970 11309071.847 10 0 60389 17100.00000 0 20953247.357 -4037250.299 13984570.854 10 0 60389 18000.00000 0 19299869.656 -3156251.428 16388579.531 10 0 60389 18900.00000 0 17488392.774 -1999774.223 18474536.807 10 0 60389 19800.00000 0 15582487.045 -568731.854 20202078.103 10 0 60389 20700.00000 0 13646275.529 1123427.831 21537806.551 10 0 60389 21600.00000 0 11741737.173 3051039.206 22455928.194 10 0 60389 22500.00000 0 9926220.919 5177052.158 22938740.132 10 0 60389 23400.00000 0 8250173.368 7454347.562 22976963.327 10 0 60389 24300.00000 0 6755173.211 9827481.011 22569914.644 10 0 60389 25200.00000 0 5472352.808 12234783.331 21725515.537 10 0 60389 26100.00000 0 4421271.095 14610731.836 20460137.537 10 0 60389 27000.00000 0 3609283.363 16888495.157 18798287.522 10 0 60389 27900.00000 0 3031432.973 19002547.317 16772138.425 10 0 60389 28800.00000 0 2670868.595 20891243.612 14420913.784 10 0 60389 29700.00000 0 2499768.875 22499252.231 11790137.087 10 0 60389 30600.00000 0 2480735.403 23779741.130 8930759.436 10 0 60389 31500.00000 0 2568595.398 24696229.406 5898181.388 10 0 60389 32400.00000 0 2712538.257 25224026.009 2751187.084 10 0 60389 33300.00000 0 2858496.013 25351195.426 -449189.447 10 0 60389 34200.00000 0 2951667.232 25079009.472 -3640844.196 10 0 60389 35100.00000 0 2939077.542 24421865.601 -6761806.631 10 0 60389 36000.00000 0 2772068.133 23406674.437 -9751443.318 10 0 60389 36900.00000 0 2408606.274 22071741.438 -12551638.039 10 0 60389 37800.00000 0 1815319.117 20465188.949 -15107925.141 10 0 60389 38700.00000 0 969163.499 18642984.230 -17370553.652 10 0 60389 39600.00000 0 -141340.372 16666655.758 -19295460.950 10 0 60389 40500.00000 0 -1515365.148 14600793.263 -20845136.638 10 0 60389 41400.00000 0 -3139555.756 12510436.081 -21989359.373 10 0 60389 42300.00000 0 -4988343.175 10458459.196 -22705791.949 10 0 60389 43200.00000 0 -7024781.212 8503066.394 -22980422.659 10 0 60389 44100.00000 0 -9201872.865 6695495.437 -22807844.068 10 0 60389 45000.00000 0 -11464332.051 5078031.293 -22191363.357 10 0 60389 45900.00000 0 -13750708.026 3682410.352 -21142941.810 10 0 60389 46800.00000 0 -15995784.359 2528682.169 -19682964.240 10 0 60389 47700.00000 0 -18133152.428 1624575.874 -17839842.583 10 0 60389 48600.00000 0 -20097851.879 965397.063 -15649461.174 10 0 60389 49500.00000 0 -21828967.370 534458.438 -13154474.449 10 0 60389 50400.00000 0 -23272072.524 304024.880 -10403470.865 10 0 60389 51300.00000 0 -24381418.353 236731.610 -7450019.723 10 0 60389 52200.00000 0 -25121774.129 287414.050 -4351619.958 10 0 60389 53100.00000 0 -25469843.369 405270.412 -1168572.216 10 0 60389 54000.00000 0 -25415195.671 536263.918 2037202.945 10 0 60389 54900.00000 0 -24960675.783 625661.519 5203376.775 10 0 60389 55800.00000 0 -24122273.435 620600.315 8268429.462 10 0 60389 56700.00000 0 -22928460.455 472572.041 11172848.280 10 0 60389 57600.00000 0 -21419024.049 139719.765 13860283.050 10 0 60389 58500.00000 0 -19643446.290 -411150.700 16278636.288 10 0 60389 59400.00000 0 -17658898.674 -1202929.772 18381067.197 10 0 60389 60300.00000 0 -15527936.268 -2247002.651 20126890.656 10 0 60389 61200.00000 0 -13315988.118 -3542537.947 21482354.703 10 0 60389 62100.00000 0 -11088748.487 -5076296.257 22421282.629 10 0 60389 63000.00000 0 -8909576.986 -6822966.897 22925568.490 10 0 60389 63900.00000 0 -6837014.866 -8746019.067 22985517.637 10 0 60389 64800.00000 0 -4922519.424 -10799032.565 22600026.704 10 0 60389 65700.00000 0 -3208509.152 -12927453.497 21776600.291 10 0 60389 66600.00000 0 -1726799.293 -15070702.954 20531204.391 10 0 60389 67500.00000 0 -497491.276 -17164552.173 18887959.377 10 0 60389 68400.00000 0 471639.200 -19143666.621 16878678.095 10 0 60389 69300.00000 0 1185231.122 -20944214.362 14542257.304 10 0 60389 70200.00000 0 1659901.392 -22506431.068 11923933.325 10 0 60389 71100.00000 0 1923301.263 -23777035.602 9074415.261 10 0 60389 72000.00000 0 2012705.936 -24711395.754 6048911.607 10 0 60389 72900.00000 0 1973196.749 -25275353.768 2906068.165 10 0 60389 73800.00000 0 1855512.574 -25446635.053 -293162.852 10 0 60389 74700.00000 0 1713661.052 -25215780.487 -3486701.038 10 0 60389 75600.00000 0 1602390.666 -24586562.468 -6612540.685 10 0 60389 76500.00000 0 1574630.783 -23575866.268 -9609954.991 10 0 60389 77400.00000 0 1679008.427 -22213040.649 -12420677.912 10 0 60389 78300.00000 0 1957547.612 -20538743.985 -14990040.356 10 0 60389 79200.00000 0 2443649.562 -18603333.338 -17268038.180 10 0 60389 80100.00000 0 3160440.483 -16464863.282 -19210310.745 10 0 60389 81000.00000 0 4119558.181 -14186777.686 -20779010.532 10 0 60389 81900.00000 0 5320430.377 -11835390.648 -21943546.522 10 0 60389 82800.00000 0 6750076.857 -9477261.706 -22681186.442 10 0 60389 83700.00000 0 8383445.510 -7176574.857 -22977505.852 10 0 60389 84600.00000 0 10184269.762 -4992630.801 -22826674.963 10 0 60389 85500.00000 0 12106412.809 -2977557.077 -22231577.275 10 0 60390 0.00000 0 14095643.238 -1174331.727 -21203757.472 10 0 60390 900.00000 0 16091769.493 384798.159 -19763198.632 10 0 60390 1800.00000 0 18031041.510 1679434.984 -17937934.273 10 0 60390 2700.00000 0 19848722.555 2701643.388 -15763500.744 10 0 60390 3600.00000 0 21481720.631 3456030.051 -13282241.817 10 0 60390 4500.00000 0 22871169.759 3959289.458 -10542478.746 10 0 60390 5400.00000 0 23964852.177 4239236.055 -7597562.301 10 0 60390 6300.00000 0 24719359.250 4333365.281 -4504825.858 10 0 60390 7200.00000 0 25101899.946 4287005.941 -1324460.693 10 0 60390 8100.00000 0 25091680.726 4151143.792 1881663.720 10 0 60390 9000.00000 0 24680798.935 3980010.064 5051210.492 10 0 60390 9900.00000 0 23874612.521 3828538.443 8122592.710 10 0 60390 10800.00000 0 22691571.173 3749799.356 11036173.027 10 0 60390 11700.00000 0 21162516.769 3792521.002 13735421.695 10 0 60390 12600.00000 0 19329483.310 3998802.476 16168010.370 10 0 60390 13500.00000 0 17244047.417 4402115.813 18286820.741 10 0 60390 14400.00000 0 14965298.953 5025681.201 20050849.026 10 0 60390 15300.00000 0 12557516.842 5881283.621 21425989.719 10 0 60390 16200.00000 0 10087646.885 6968580.464 22385684.547 10 0 60390 17100.00000 0 7622686.074 8274929.092 22911425.352 10 0 60390 18000.00000 0 5227081.288 9775741.612 22993102.313 10 0 60390 18900.00000 0 2960249.157 11435352.378 22629191.850 10 0 60390 19800.00000 0 874318.566 13208362.611 21826781.282 10 0 60390 20700.00000 0 -987812.124 15041406.879 20601430.189 10 0 60390 21600.00000 0 -2594024.133 16875268.852 18976871.139 10 0 60390 22500.00000 0 -3924070.799 18647259.326 16984555.181 10 0 60390 23400.00000 0 -4970169.502 20293758.501 14663050.239 10 0 60390 24300.00000 0 -5737069.447 21752817.514 12057303.118 10 0 60390 25200.00000 0 -6241593.348 22966711.454 9217778.358 10 0 60390 26100.00000 0 -6511672.787 23884337.634 6199489.635 10 0 60390 27000.00000 0 -6584918.075 24463358.962 3060941.535 10 0 60390 27900.00000 0 -6506782.940 24672002.403 -136998.502 10 0 60390 28800.00000 0 -6328401.428 24490436.565 -3332276.656 10 0 60390 29700.00000 0 -6104188.408 23911669.711 -6462854.986 10 0 60390 30600.00000 0 -5889305.187 22941929.415 -9467916.160 10 0 60390 31500.00000 0 -5737097.731 21600506.663 -12289046.970 10 0 60390 32400.00000 0 -5696616.373 19919069.651 -14871377.298 10 0 60390 33300.00000 0 -5810322.669 17940474.813 -17164651.974 10 0 60390 34200.00000 0 -6112081.344 15717123.802 -19124214.166 10 0 60390 35100.00000 0 -6625523.394 13308934.264 -20711880.746 10 0 60390 36000.00000 0 -7362850.786 10781008.533 -21896692.187 10 0 60390 36900.00000 0 -8324134.670 8201097.174 -22655521.988 10 0 60390 37800.00000 0 -9497138.131 5636962.875 -22973533.436 10 0 60390 38700.00000 0 -10857672.429 3153754.476 -22844474.468 10 0 60390 39600.00000 0 -12370473.019 811500.494 -22270804.534 10 0 60390 40500.00000 0 -13990559.660 -1337173.470 -21263650.688 10 0 60390 41400.00000 0 -15665024.300 -3249008.463 -19842593.377 10 0 60390 42300.00000 0 -17335172.178 -4891675.450 -18035285.853 10 0 60390 43200.00000 0 -18938926.376 -6244873.382 -15876914.387 10 0 60390 44100.00000 0 -20413394.745 -7300916.996 -13409509.718 10 0 60390 45000.00000 0 -21697490.913 -8064790.821 -10681123.286 10 0 60390 45900.00000 0 -22734498.668 -8553668.562 -7744884.616 10 0 60390 46800.00000 0 -23474471.224 -8795919.718 -4657958.744 10 0 60390 47700.00000 0 -23876363.837 -8829647.100 -1480424.789 10 0 60390 48600.00000 0 -23909809.566 -8700818.828 1725901.612 10 0 60390 49500.00000 0 -23556463.212 -8461075.562 4898678.144 10 0 60390 50400.00000 0 -22810856.904 -8165307.331 7976253.434 10 0 60390 51300.00000 0 -21680731.624 -7869103.862 10898868.051 10 0 60390 52200.00000 0 -20186831.201 -7626187.299 13609815.072 10 0 60390 53100.00000 0 -18362168.015 -7485936.552 16056537.480 10 0 60390 54000.00000 0 -16250791.759 -7491108.106 18191641.360 10 0 60390 54900.00000 0 -13906113.217 -7675849.482 19973805.841 10 0 60390 55800.00000 0 -11388853.308 -8064088.733 21368573.052 10 0 60390 56700.00000 0 -8764702.800 -8668367.351 22349003.924 10 0 60390 57600.00000 0 -6101789.619 -9489165.221 22896188.428 10 0 60390 58500.00000 0 -3468058.190 -10514745.631 22999601.514 10 0 60390 59400.00000 0 -928668.418 -11721526.808 22657298.966 10 0 60390 60300.00000 0 1456479.287 -13074964.636 21875950.101 10 0 60390 61200.00000 0 3634991.845 -14530910.208 20670707.091 10 0 60390 62100.00000 0 5563912.698 -16037386.256 19064913.473 10 0 60390 63000.00000 0 7211253.881 -17536709.246 17089657.066 10 0 60390 63900.00000 0 8557068.732 -18967869.529 14783175.321 10 0 60390 64800.00000 0 9594021.895 -20269071.066 12190123.688 10 0 60390 65700.00000 0 10327433.782 -21380325.367 9360720.097 10 0 60390 66600.00000 0 10774798.389 -22245991.643 6349781.183 10 0 60390 67500.00000 0 10964795.110 -22817156.958 3215667.942 10 0 60390 68400.00000 0 10935836.344 -23053756.460 19160.557 10 0 60390 69300.00000 0 10734212.086 -22926344.118 -3177716.276 10 0 60390 70200.00000 0 10411909.811 -22417438.759 -6312894.935 10 0 60390 71100.00000 0 10024201.724 -21522387.625 -9325470.084 10 0 60390 72000.00000 0 9627101.508 -20249709.816 -12156883.809 10 0 60390 72900.00000 0 9274798.388 -18620903.650 -14752067.338 10 0 60390 73800.00000 0 9017177.525 -16669724.509 -17060516.696 10 0 60390 74700.00000 0 8897532.247 -14440961.999 -19037280.885 10 0 60390 75600.00000 0 8950565.679 -11988766.341 -20643842.932 10 0 60390 76500.00000 0 9200767.191 -9374592.874 -21848876.247 10 0 60390 77400.00000 0 9661233.329 -6664849.728 -22628861.176 10 0 60390 78300.00000 0 10332984.105 -3928346.165 -22968549.407 10 0 60390 79200.00000 0 11204804.660 -1233647.543 -22861266.866 10 0 60390 80100.00000 0 12253620.052 1353553.130 -22309048.837 10 0 60390 81000.00000 0 13445388.308 3772937.756 -21322604.360 10 0 60390 81900.00000 0 14736474.941 5971835.739 -19921110.244 10 0 60390 82800.00000 0 16075451.506 7907172.104 -18131838.402 10 0 60390 83700.00000 0 17405242.739 9547010.271 -15989623.579 10 0 60390 84600.00000 0 18665531.753 10871625.686 -13536181.716 10 0 60390 85500.00000 0 19795321.668 11874066.267 -10819292.378 10 0 60391 0.00000 0 20735545.088 12560177.373 -7891861.753 10 0 60391 900.00000 0 21431611.262 12948092.037 -4810883.382 10 0 60391 1800.00000 0 21835781.591 13067208.812 -1636321.657 10 0 60391 2700.00000 0 21909274.393 12956703.352 1570064.579 10 0 60391 3600.00000 0 21624008.418 12663637.453 4745930.568 10 0 60391 4500.00000 0 20963911.877 12240747.604 7829563.406 10 0 60391 5400.00000 0 19925741.774 11744008.006 10761084.367 10 0 60391 6300.00000 0 18519379.204 11230072.268 13483611.941 10 0 60391 7200.00000 0 16767588.533 10753702.736 15944362.788 10 0 60391 8100.00000 0 14705250.908 10365296.415 18095669.475 10 0 60391 9000.00000 0 12378104.465 10108611.863 19895895.859 10 0 60391 9900.00000 0 9841044.021 10018792.532 21310233.224 10 0 60391 10800.00000 0 7156051.016 10120769.151 22311362.928 10 0 60391 11700.00000 0 4389839.397 10428107.644 22879973.950 10 0 60391 12600.00000 0 1611314.514 10942350.295 23005126.521 10 0 60391 13500.00000 0 -1111050.625 11652877.282 22684455.886 10 0 60391 14400.00000 0 -3711814.383 12537294.184 21924213.001 10 0 60391 15300.00000 0 -6131034.581 13562329.287 20739141.811 10 0 60391 16200.00000 0 -8316505.020 14685203.527 19152195.527 10 0 60391 17100.00000 0 -10225669.315 15855416.461 17194097.016 10 0 60391 18000.00000 0 -11827134.020 17016874.275 14902751.154 10 0 60391 18900.00000 0 -13101719.447 18110271.691 12322519.623 10 0 60391 19800.00000 0 -14043005.442 19075628.782 9503371.126 10 0 60391 20700.00000 0 -14657350.082 19854876.942 6499922.488 10 0 60391 21600.00000 0 -14963381.031 20394385.848 3370388.269 10 0 60391 22500.00000 0 -14990981.180 20647325.247 175458.516 10 0 60391 23400.00000 0 -14779811.300 20575761.876 -3022874.072 10 0 60391 24300.00000 0 -14377431.939 20152402.522 -6162515.027 10 0 60391 25200.00000 0 -13837103.742 19361908.759 -9182473.746 10 0 60391 26100.00000 0 -13215359.091 18201726.613 -12024050.217 10 0 60391 27000.00000 0 -12569447.762 16682394.664 -14631979.414 10 0 60391 27900.00000 0 -11954764.809 14827315.894 -16955510.708 10 0 60391 28800.00000 0 -11422369.783 12672001.154 -18949400.790 10 0 60391 29700.00000 0 -11016702.644 10262814.332 -20574800.371 10 0 60391 30600.00000 0 -10773593.506 7655270.262 -21800016.980 10 0 60391 31500.00000 0 -10718651.010 4911955.334 -22601138.629 10 0 60391 32400.00000 0 -10866098.136 2100156.612 -22962505.856 10 0 60391 33300.00000 0 -11218105.384 -710702.397 -22877022.628 10 0 60391 34200.00000 0 -11764650.210 -3451712.927 -22346299.702 10 0 60391 35100.00000 0 -12483909.316 -6057108.995 -21380627.324 10 0 60391 36000.00000 0 -13343167.802 -8466763.081 -19998777.442 10 0 60391 36900.00000 0 -14300207.178 -10628445.580 -18227639.015 10 0 60391 37800.00000 0 -15305113.812 -12499754.129 -16101693.276 10 0 60391 38700.00000 0 -16302431.399 -14049632.668 -13662339.093 10 0 60391 39600.00000 0 -17233566.250 -15259417.373 -10957081.660 10 0 60391 40500.00000 0 -18039343.262 -16123366.613 -8038600.644 10 0 60391 41400.00000 0 -18662603.921 -16648653.948 -4963716.447 10 0 60391 42300.00000 0 -19050735.802 -16854825.946 -1792275.484 10 0 60391 43200.00000 0 -19158025.944 -16772749.387 1414022.924 10 0 60391 44100.00000 0 -18947738.064 -16443094.037 4592834.284 10 0 60391 45000.00000 0 -18393825.427 -15914416.788 7682386.826 10 0 60391 45900.00000 0 -17482206.855 -15240929.737 10622685.118 10 0 60391 46800.00000 0 -16211552.015 -14480047.799 13356675.540 10 0 60391 47700.00000 0 -14593543.055 -13689820.392 15831350.719 10 0 60391 48600.00000 0 -12652601.719 -12926356.171 17998771.753 10 0 60391 49500.00000 0 -10425093.523 -12241349.434 19816988.944 10 0 60391 50400.00000 0 -7958042.290 -11679812.133 21250844.089 10 0 60391 51300.00000 0 -5307408.510 -11278106.201 22272639.898 10 0 60391 52200.00000 0 -2536002.720 -11062358.039 22862664.866 10 0 60391 53100.00000 0 288880.054 -11047320.740 23009564.596 10 0 60391 54000.00000 0 3098007.707 -11235730.874 22710553.499 10 0 60391 54900.00000 0 5822836.006 -11618186.097 21971463.529 10 0 60391 55800.00000 0 8398103.791 -12173548.268 20806629.461 10 0 60391 56700.00000 0 10764292.458 -12869855.123 19238612.966 10 0 60391 57600.00000 0 12869849.406 -13665702.520 17297770.489 10 0 60391 58500.00000 0 14673084.553 -14512039.865 15021672.617 10 0 60391 59400.00000 0 16143662.466 -15354304.073 12454385.301 10 0 60391 60300.00000 0 17263628.988 -16134803.253 9645625.790 10 0 60391 61200.00000 0 18027930.314 -16795250.645 6649808.624 10 0 60391 62100.00000 0 18444403.308 -17279342.705 3524999.247 10 0 60391 63000.00000 0 18533237.745 -17535273.024 331794.726 10 0 60391 63900.00000 0 18325933.109 -17518075.993 -2867847.152 10 0 60391 64800.00000 0 17863793.761 -17191700.876 -6011807.972 10 0 60391 65700.00000 0 17196025.759 -16530727.884 -9039014.679 10 0 60391 66600.00000 0 16377515.430 -15521652.612 -11890627.806 10 0 60391 67500.00000 0 15466383.446 -14163683.122 -14511188.509 10 0 60391 68400.00000 0 14521417.632 -12469014.335 -16849701.683 10 0 60391 69300.00000 0 13599493.139 -10462566.294 -18860633.611 10 0 60391 70200.00000 0 12753089.124 -8181195.438 -20504804.263 10 0 60391 71100.00000 0 12028007.150 -5672410.158 -21750156.526 10 0 60391 72000.00000 0 11461388.022 -2992642.830 -22572386.928 10 0 60391 72900.00000 0 11080111.184 -205149.236 -22955425.319 10 0 60391 73800.00000 0 10899644.658 2622378.043 -22891753.766 10 0 60391 74700.00000 0 10923394.459 5420383.473 -22382558.174 10 0 60391 75600.00000 0 11142581.274 8120102.891 -21437709.299 10 0 60391 76500.00000 0 11536649.853 10656188.093 -20075573.212 10 0 60391 77400.00000 0 12074193.932 12969192.420 -18322654.575 10 0 60391 78300.00000 0 12714357.553 15007813.897 -16213079.485 10 0 60391 79200.00000 0 13408653.325 16730802.537 -13787927.820 10 0 60391 80100.00000 0 14103120.311 18108452.428 -11094428.216 10 0 60391 81000.00000 0 14740729.621 19123616.832 -8185031.650 10 0 60391 81900.00000 0 15263935.192 19772204.653 -5116382.174 10 0 60391 82800.00000 0 15617260.938 20063138.605 -1948205.633 10 0 60391 83700.00000 0 15749813.938 20017778.344 1257861.134 10 0 60391 84600.00000 0 15617616.555 19668834.507 4439476.874 10 0 60391 85500.00000 0 15185658.224 19058821.130 7534813.858 99